This demonstration page uses our WeatherBlox Daily Observations layout. Learn more.

Left ArrowRight Arrow

38.20091, -84.87328

Hourly Observations for October 25, 2021

Temp ( °F °C ) Dew Point ( °F °C ) Humidity (%) Winds ( mph kmh ) Pressure ( in mb ) Visibility ( mi km ) Precip ( " mm )
12:53 am 00:53 Clear 65 18.3 52 11.1 63 63 S 13 20 29.83 1010 10 16 N/A
1:53 am 01:53 Clear 65 18.3 51 10.6 61 61 S 10 17 29.80 1009 10 16 N/A
2:53 am 02:53 Clear 66 18.9 50 10 56 56 S 12 19 29.78 1009 10 16 N/A
3:53 am 03:53 Clear 67 19.4 48 8.9 51 51 S 14 22 29.77 1008 10 16 N/A
4:53 am 04:53 Clear 67 19.4 47 8.3 49 49 SSW 15 24 29.78 1009 10 16 N/A
5:53 am 05:53 Cloudy 65 18.3 49 9.4 56 56 WSW 5 7 29.83 1010 10 16 N/A
6:53 am 06:53 Cloudy with Heavy Rain 58 14.4 56 13.3 93 93 SW 8 13 29.85 1011 2 3 0.18 4.57
7:21 am 07:21 Cloudy with Light Rain 57 13.9 56 13.3 96 96 SE 9 15 29.82 1010 4 6 0.17 4.32
7:53 am 07:53 Cloudy with Light Rain 58 14.4 56 13.3 93 93 SSE 18 30 29.70 1006 10 16 0.18 4.57
8:53 am 08:53 Sunny 59 15 57 13.9 93 93 S 9 15 29.72 1007 10 16 0.00 0.00
9:53 am 09:53 Sunny 59 15 57 13.9 93 93 SSW 8 13 29.74 1007 10 16 N/A
10:53 am 10:53 Cloudy 63 17.2 58 14.4 84 84 SSW 15 24 29.72 1007 10 16 N/A
11:03 am 11:03 Mostly Cloudy 63 17.2 57 13.9 81 81 SSW 16 26 29.73 1007 10 16 N/A
11:53 am 11:53 Cloudy 63 17.2 57 13.9 81 81 SW 15 24 29.72 1007 10 16 N/A
12:53 pm 12:53 Mostly Cloudy 66 18.9 58 14.4 75 75 SSW 15 24 29.70 1006 10 16 N/A
1:07 pm 13:07 Mostly Cloudy 66 18.9 58 14.4 75 75 SSW 12 19 29.69 1006 10 16 N/A
1:53 pm 13:53 Mostly Cloudy with Light Rain 62 16.7 57 13.9 84 84 W 16 26 29.69 1005 2 3 0.05 1.27
1:55 pm 13:55 Mostly Cloudy with Heavy Rain 60 15.6 56 13.3 86 86 W 18 30 29.70 1006 2 3 0.02 0.51
2:02 pm 14:02 Cloudy with Light Rain 59 15 55 12.8 87 87 W 14 22 29.71 1006 3 5 0.02 0.51
2:25 pm 14:25 Mostly Cloudy 60 15.6 57 13.9 90 90 W 13 20 29.69 1006 10 16 0.02 0.51
2:53 pm 14:53 Cloudy 59 15 55 12.8 87 87 W 10 17 29.70 1006 10 16 0.02 0.51
3:53 pm 15:53 Cloudy 58 14.4 50 10 75 75 W 14 22 29.72 1007 10 16 N/A
4:53 pm 16:53 Cloudy 55 12.8 48 8.9 77 77 W 12 19 29.77 1008 10 16 N/A
5:12 pm 17:12 Cloudy 55 12.8 49 9.4 80 80 W 13 20 29.78 1009 10 16 N/A
5:28 pm 17:28 Cloudy 55 12.8 48 8.9 77 77 W 12 19 29.79 1009 10 16 N/A
5:53 pm 17:53 Cloudy 55 12.8 48 8.9 77 77 W 13 20 29.78 1009 10 16 N/A
6:53 pm 18:53 Cloudy 53 11.7 49 9.4 86 86 W 9 15 29.80 1009 10 16 N/A
7:04 pm 19:04 Cloudy 53 11.7 49 9.4 86 86 W 8 13 29.82 1010 10 16 N/A
7:53 pm 19:53 Cloudy 53 11.7 49 9.4 86 86 W 8 13 29.82 1010 10 16 N/A
8:53 pm 20:53 Cloudy with Mist and Fog 53 11.7 51 10.6 93 93 W 8 13 29.85 1011 4 6 N/A
9:26 pm 21:26 Cloudy 53 11.7 51 10.6 93 93 W 9 15 29.87 1012 8 13 N/A
9:53 pm 21:53 Cloudy 53 11.7 51 10.6 93 93 W 9 15 29.86 1011 9 14 N/A
10:02 pm 22:02 Cloudy 53 11.7 50 10 89 89 WNW 10 17 29.88 1012 10 16 N/A
10:12 pm 22:12 Cloudy 53 11.7 50 10 89 89 W 9 15 29.88 1012 10 16 N/A
10:39 pm 22:39 Cloudy 52 11.1 50 10 93 93 WNW 8 13 29.91 1013 7 11 N/A
10:53 pm 22:53 Cloudy with Mist and Fog 52 11.1 50 10 93 93 WNW 10 17 29.91 1013 5 8 N/A
11:44 pm 23:44 Cloudy 51 10.6 49 9.4 92 92 WNW 7 11 29.93 1013 10 16 0.01 0.25
11:53 pm 23:53 Cloudy 51 10.6 49 9.4 92 92 WNW 8 13 29.91 1013 10 16 0.01 0.25

Powered by AerisWeather